sat.trackr.live / text

‹ back to catalog

LEMUR-2-SONNENBLUME

NORAD 67367 · 2026-004E

PAYLOAD ACTIVE UNKNOWN

§ Identity

Operator
Country
US
Launch date
2026-01-11
Launch site
AFWTR
Launch vehicle
Mass (kg)
RCS (m²)

Purposes: earth_obs

External: N2YO · Heavens-Above · Gunter

§ Orbital elements

Epoch: 2026-05-24T23:42:17.427744Z

Period
96.76 min
Inclination
97.7987°
Eccentricity
0.0007016
Mean motion
14.88176303 rev/d
Perigee alt
598.7 km
Apogee alt
608.5 km
Semi-major
6,981.8 km
B*
2.4118e-4
RAAN
143.8962°
Arg perigee
209.2663°
Mean anomaly
150.8161°
Rev number
1,984

§ Raw data

LEMUR-2-SONNENBLUME1 67367U 26004E   26144.98770171  .00002169  00000+0  24118-3 0  99942 67367  97.7987 143.8962 0007016 209.2663 150.8161 14.88176303 19848

JSON: /api/v1/satellites/67367 · /tle

For live sub-satellite position, see the globe view (requires WebGL).

§ Visibility from observer

Set your observer location to see the next 7 days of passes ≥ 10°. The values pass through the URL so the page stays shareable.

No JS? Fill the form by hand. The geolocation button needs JavaScript.